Index of /20260411/WXO-DD/model_gdps/15km/12/162
Name Last modified Size Description
Parent Directory -
20260411T12Z_MSC_GDPS_AbsoluteVorticity_IsbL-0200_LatLon0.15_PT162H.grib2 2026-04-11 16:53 1.5M
20260411T12Z_MSC_GDPS_AbsoluteVorticity_IsbL-0250_LatLon0.15_PT162H.grib2 2026-04-11 16:53 1.3M
20260411T12Z_MSC_GDPS_AbsoluteVorticity_IsbL-0500_LatLon0.15_PT162H.grib2 2026-04-11 16:53 1.4M
20260411T12Z_MSC_GDPS_AbsoluteVorticity_IsbL-0700_LatLon0.15_PT162H.grib2 2026-04-11 16:53 1.6M
20260411T12Z_MSC_GDPS_AbsoluteVorticity_IsbL-0850_LatLon0.15_PT162H.grib2 2026-04-11 16:53 1.6M
20260411T12Z_MSC_GDPS_AirTemp-Max_AGL-2m_LatLon0.15_PT162H.grib2 2026-04-11 16:53 750K
20260411T12Z_MSC_GDPS_AirTemp-Min_AGL-2m_LatLon0.15_PT162H.grib2 2026-04-11 16:53 912K
20260411T12Z_MSC_GDPS_AirTemp_AGL-120m_LatLon0.15_PT162H.grib2 2026-04-11 16:53 910K
20260411T12Z_MSC_GDPS_AirTemp_AGL-2m_LatLon0.15_PT162H.grib2 2026-04-11 16:53 1.0M
20260411T12Z_MSC_GDPS_AirTemp_AGL-40m_LatLon0.15_PT162H.grib2 2026-04-11 16:53 930K
20260411T12Z_MSC_GDPS_AirTemp_AGL-80m_LatLon0.15_PT162H.grib2 2026-04-11 16:53 919K
20260411T12Z_MSC_GDPS_AirTemp_IsbL-0001_LatLon0.15_PT162H.grib2 2026-04-11 16:53 630K
20260411T12Z_MSC_GDPS_AirTemp_IsbL-0005_LatLon0.15_PT162H.grib2 2026-04-11 16:53 677K
20260411T12Z_MSC_GDPS_AirTemp_IsbL-0010_LatLon0.15_PT162H.grib2 2026-04-11 16:53 750K
20260411T12Z_MSC_GDPS_AirTemp_IsbL-0020_LatLon0.15_PT162H.grib2 2026-04-11 16:53 695K
20260411T12Z_MSC_GDPS_AirTemp_IsbL-0030_LatLon0.15_PT162H.grib2 2026-04-11 16:53 745K
20260411T12Z_MSC_GDPS_AirTemp_IsbL-0050_LatLon0.15_PT162H.grib2 2026-04-11 16:53 808K
20260411T12Z_MSC_GDPS_AirTemp_IsbL-0100_LatLon0.15_PT162H.grib2 2026-04-11 16:53 950K
20260411T12Z_MSC_GDPS_AirTemp_IsbL-0150_LatLon0.15_PT162H.grib2 2026-04-11 16:53 963K
20260411T12Z_MSC_GDPS_AirTemp_IsbL-0175_LatLon0.15_PT162H.grib2 2026-04-11 16:53 955K
20260411T12Z_MSC_GDPS_AirTemp_IsbL-0200_LatLon0.15_PT162H.grib2 2026-04-11 16:53 963K
20260411T12Z_MSC_GDPS_AirTemp_IsbL-0225_LatLon0.15_PT162H.grib2 2026-04-11 16:53 969K
20260411T12Z_MSC_GDPS_AirTemp_IsbL-0250_LatLon0.15_PT162H.grib2 2026-04-11 16:53 1.0M
20260411T12Z_MSC_GDPS_AirTemp_IsbL-0275_LatLon0.15_PT162H.grib2 2026-04-11 16:53 1.0M
20260411T12Z_MSC_GDPS_AirTemp_IsbL-0300_LatLon0.15_PT162H.grib2 2026-04-11 16:53 1.0M
20260411T12Z_MSC_GDPS_AirTemp_IsbL-0350_LatLon0.15_PT162H.grib2 2026-04-11 16:53 921K
20260411T12Z_MSC_GDPS_AirTemp_IsbL-0400_LatLon0.15_PT162H.grib2 2026-04-11 16:53 933K
20260411T12Z_MSC_GDPS_AirTemp_IsbL-0450_LatLon0.15_PT162H.grib2 2026-04-11 16:53 954K
20260411T12Z_MSC_GDPS_AirTemp_IsbL-0500_LatLon0.15_PT162H.grib2 2026-04-11 16:53 1.0M
20260411T12Z_MSC_GDPS_AirTemp_IsbL-0550_LatLon0.15_PT162H.grib2 2026-04-11 16:53 790K
20260411T12Z_MSC_GDPS_AirTemp_IsbL-0600_LatLon0.15_PT162H.grib2 2026-04-11 16:53 885K
20260411T12Z_MSC_GDPS_AirTemp_IsbL-0650_LatLon0.15_PT162H.grib2 2026-04-11 16:53 912K
20260411T12Z_MSC_GDPS_AirTemp_IsbL-0700_LatLon0.15_PT162H.grib2 2026-04-11 16:53 947K
20260411T12Z_MSC_GDPS_AirTemp_IsbL-0750_LatLon0.15_PT162H.grib2 2026-04-11 16:53 1.0M
20260411T12Z_MSC_GDPS_AirTemp_IsbL-0800_LatLon0.15_PT162H.grib2 2026-04-11 16:53 1.1M
20260411T12Z_MSC_GDPS_AirTemp_IsbL-0850_LatLon0.15_PT162H.grib2 2026-04-11 16:53 1.1M
20260411T12Z_MSC_GDPS_AirTemp_IsbL-0875_LatLon0.15_PT162H.grib2 2026-04-11 16:53 1.2M
20260411T12Z_MSC_GDPS_AirTemp_IsbL-0900_LatLon0.15_PT162H.grib2 2026-04-11 16:53 1.2M
20260411T12Z_MSC_GDPS_AirTemp_IsbL-0925_LatLon0.15_PT162H.grib2 2026-04-11 16:53 1.1M
20260411T12Z_MSC_GDPS_AirTemp_IsbL-0950_LatLon0.15_PT162H.grib2 2026-04-11 16:53 1.1M
20260411T12Z_MSC_GDPS_AirTemp_IsbL-0970_LatLon0.15_PT162H.grib2 2026-04-11 16:53 1.1M
20260411T12Z_MSC_GDPS_AirTemp_IsbL-0985_LatLon0.15_PT162H.grib2 2026-04-11 16:53 1.1M
20260411T12Z_MSC_GDPS_AirTemp_IsbL-1000_LatLon0.15_PT162H.grib2 2026-04-11 16:53 1.1M
20260411T12Z_MSC_GDPS_AirTemp_IsbL-1015_LatLon0.15_PT162H.grib2 2026-04-11 16:53 1.1M
20260411T12Z_MSC_GDPS_Albedo_Sfc_LatLon0.15_PT162H.grib2 2026-04-11 16:53 248K
20260411T12Z_MSC_GDPS_CAPE_Sfc_LatLon0.15_PT162H.grib2 2026-04-11 16:53 3.8M
20260411T12Z_MSC_GDPS_CIN_Sfc_LatLon0.15_PT162H.grib2 2026-04-11 16:53 2.9M
20260411T12Z_MSC_GDPS_CloudWater_EAtm_LatLon0.15_PT162H.grib2 2026-04-11 16:53 524K
20260411T12Z_MSC_GDPS_ConvectivePrecip-Accum_Sfc_LatLon0.15_PT162H.grib2 2026-04-11 16:53 3.4M
20260411T12Z_MSC_GDPS_DewPointDepression_AGL-2m_LatLon0.15_PT162H.grib2 2026-04-11 16:53 751K
20260411T12Z_MSC_GDPS_DewPointDepression_IsbL-0010_LatLon0.15_PT162H.grib2 2026-04-11 16:53 2.6K
20260411T12Z_MSC_GDPS_DewPointDepression_IsbL-0020_LatLon0.15_PT162H.grib2 2026-04-11 16:53 53K
20260411T12Z_MSC_GDPS_DewPointDepression_IsbL-0030_LatLon0.15_PT162H.grib2 2026-04-11 16:53 71K
20260411T12Z_MSC_GDPS_DewPointDepression_IsbL-0050_LatLon0.15_PT162H.grib2 2026-04-11 16:53 356K
20260411T12Z_MSC_GDPS_DewPointDepression_IsbL-0100_LatLon0.15_PT162H.grib2 2026-04-11 16:53 370K
20260411T12Z_MSC_GDPS_DewPointDepression_IsbL-0150_LatLon0.15_PT162H.grib2 2026-04-11 16:53 463K
20260411T12Z_MSC_GDPS_DewPointDepression_IsbL-0175_LatLon0.15_PT162H.grib2 2026-04-11 16:53 537K
20260411T12Z_MSC_GDPS_DewPointDepression_IsbL-0200_LatLon0.15_PT162H.grib2 2026-04-11 16:53 617K
20260411T12Z_MSC_GDPS_DewPointDepression_IsbL-0225_LatLon0.15_PT162H.grib2 2026-04-11 16:53 760K
20260411T12Z_MSC_GDPS_DewPointDepression_IsbL-0250_LatLon0.15_PT162H.grib2 2026-04-11 16:53 866K
20260411T12Z_MSC_GDPS_DewPointDepression_IsbL-0275_LatLon0.15_PT162H.grib2 2026-04-11 16:53 883K
20260411T12Z_MSC_GDPS_DewPointDepression_IsbL-0300_LatLon0.15_PT162H.grib2 2026-04-11 16:53 919K
20260411T12Z_MSC_GDPS_DewPointDepression_IsbL-0350_LatLon0.15_PT162H.grib2 2026-04-11 16:53 947K
20260411T12Z_MSC_GDPS_DewPointDepression_IsbL-0400_LatLon0.15_PT162H.grib2 2026-04-11 16:53 1.0M
20260411T12Z_MSC_GDPS_DewPointDepression_IsbL-0450_LatLon0.15_PT162H.grib2 2026-04-11 16:53 1.0M
20260411T12Z_MSC_GDPS_DewPointDepression_IsbL-0500_LatLon0.15_PT162H.grib2 2026-04-11 16:53 1.0M
20260411T12Z_MSC_GDPS_DewPointDepression_IsbL-0550_LatLon0.15_PT162H.grib2 2026-04-11 16:53 1.0M
20260411T12Z_MSC_GDPS_DewPointDepression_IsbL-0600_LatLon0.15_PT162H.grib2 2026-04-11 16:53 1.1M
20260411T12Z_MSC_GDPS_DewPointDepression_IsbL-0650_LatLon0.15_PT162H.grib2 2026-04-11 16:53 1.1M
20260411T12Z_MSC_GDPS_DewPointDepression_IsbL-0700_LatLon0.15_PT162H.grib2 2026-04-11 16:53 1.1M
20260411T12Z_MSC_GDPS_DewPointDepression_IsbL-0750_LatLon0.15_PT162H.grib2 2026-04-11 16:53 1.1M
20260411T12Z_MSC_GDPS_DewPointDepression_IsbL-0800_LatLon0.15_PT162H.grib2 2026-04-11 16:53 1.2M
20260411T12Z_MSC_GDPS_DewPointDepression_IsbL-0850_LatLon0.15_PT162H.grib2 2026-04-11 16:53 1.2M
20260411T12Z_MSC_GDPS_DewPointDepression_IsbL-0875_LatLon0.15_PT162H.grib2 2026-04-11 16:53 1.1M
20260411T12Z_MSC_GDPS_DewPointDepression_IsbL-0900_LatLon0.15_PT162H.grib2 2026-04-11 16:53 1.1M
20260411T12Z_MSC_GDPS_DewPointDepression_IsbL-0925_LatLon0.15_PT162H.grib2 2026-04-11 16:53 1.0M
20260411T12Z_MSC_GDPS_DewPointDepression_IsbL-0950_LatLon0.15_PT162H.grib2 2026-04-11 16:53 1.0M
20260411T12Z_MSC_GDPS_DewPointDepression_IsbL-0970_LatLon0.15_PT162H.grib2 2026-04-11 16:53 1.0M
20260411T12Z_MSC_GDPS_DewPointDepression_IsbL-0985_LatLon0.15_PT162H.grib2 2026-04-11 16:53 1.0M
20260411T12Z_MSC_GDPS_DewPointDepression_IsbL-1000_LatLon0.15_PT162H.grib2 2026-04-11 16:53 967K
20260411T12Z_MSC_GDPS_DewPointDepression_IsbL-1015_LatLon0.15_PT162H.grib2 2026-04-11 16:53 907K
20260411T12Z_MSC_GDPS_DewPoint_AGL-2m_LatLon0.15_PT162H.grib2 2026-04-11 16:53 611K
20260411T12Z_MSC_GDPS_DownwardLongwaveRadiationFlux-Accum_Sfc_LatLon0.15_PT162H.grib2 2026-04-11 16:53 629K
20260411T12Z_MSC_GDPS_DownwardShortwaveRadiationFlux-Accum_NTAtm_LatLon0.15_PT162H.grib2 2026-04-11 16:53 221K
20260411T12Z_MSC_GDPS_DownwardShortwaveRadiationFlux-Accum_Sfc_LatLon0.15_PT162H.grib2 2026-04-11 16:53 830K
20260411T12Z_MSC_GDPS_FreezingRain-Accum12h_Sfc_LatLon0.15_PT162H.grib2 2026-04-11 16:53 91K
20260411T12Z_MSC_GDPS_FreezingRain-Accum24h_Sfc_LatLon0.15_PT162H.grib2 2026-04-11 16:53 132K
20260411T12Z_MSC_GDPS_FreezingRain-Accum3h_Sfc_LatLon0.15_PT162H.grib2 2026-04-11 16:53 50K
20260411T12Z_MSC_GDPS_FreezingRain-Accum6h_Sfc_LatLon0.15_PT162H.grib2 2026-04-11 16:53 65K
20260411T12Z_MSC_GDPS_FreezingRain-Accum_Sfc_LatLon0.15_PT162H.grib2 2026-04-11 16:53 276K
20260411T12Z_MSC_GDPS_GeopotentialHeight_IsbL-0001_LatLon0.15_PT162H.grib2 2026-04-11 16:53 519K
20260411T12Z_MSC_GDPS_GeopotentialHeight_IsbL-0005_LatLon0.15_PT162H.grib2 2026-04-11 16:53 497K
20260411T12Z_MSC_GDPS_GeopotentialHeight_IsbL-0010_LatLon0.15_PT162H.grib2 2026-04-11 16:53 428K
20260411T12Z_MSC_GDPS_GeopotentialHeight_IsbL-0020_LatLon0.15_PT162H.grib2 2026-04-11 16:53 570K
20260411T12Z_MSC_GDPS_GeopotentialHeight_IsbL-0030_LatLon0.15_PT162H.grib2 2026-04-11 16:53 576K
20260411T12Z_MSC_GDPS_GeopotentialHeight_IsbL-0050_LatLon0.15_PT162H.grib2 2026-04-11 16:53 575K
20260411T12Z_MSC_GDPS_GeopotentialHeight_IsbL-0100_LatLon0.15_PT162H.grib2 2026-04-11 16:53 614K
20260411T12Z_MSC_GDPS_GeopotentialHeight_IsbL-0150_LatLon0.15_PT162H.grib2 2026-04-11 16:53 629K
20260411T12Z_MSC_GDPS_GeopotentialHeight_IsbL-0175_LatLon0.15_PT162H.grib2 2026-04-11 16:53 630K
20260411T12Z_MSC_GDPS_GeopotentialHeight_IsbL-0200_LatLon0.15_PT162H.grib2 2026-04-11 16:53 633K
20260411T12Z_MSC_GDPS_GeopotentialHeight_IsbL-0225_LatLon0.15_PT162H.grib2 2026-04-11 16:53 627K
20260411T12Z_MSC_GDPS_GeopotentialHeight_IsbL-0250_LatLon0.15_PT162H.grib2 2026-04-11 16:53 637K
20260411T12Z_MSC_GDPS_GeopotentialHeight_IsbL-0275_LatLon0.15_PT162H.grib2 2026-04-11 16:53 636K
20260411T12Z_MSC_GDPS_GeopotentialHeight_IsbL-0300_LatLon0.15_PT162H.grib2 2026-04-11 16:53 637K
20260411T12Z_MSC_GDPS_GeopotentialHeight_IsbL-0350_LatLon0.15_PT162H.grib2 2026-04-11 16:53 627K
20260411T12Z_MSC_GDPS_GeopotentialHeight_IsbL-0400_LatLon0.15_PT162H.grib2 2026-04-11 16:53 618K
20260411T12Z_MSC_GDPS_GeopotentialHeight_IsbL-0450_LatLon0.15_PT162H.grib2 2026-04-11 16:53 539K
20260411T12Z_MSC_GDPS_GeopotentialHeight_IsbL-0500_LatLon0.15_PT162H.grib2 2026-04-11 16:53 527K
20260411T12Z_MSC_GDPS_GeopotentialHeight_IsbL-0550_LatLon0.15_PT162H.grib2 2026-04-11 16:53 688K
20260411T12Z_MSC_GDPS_GeopotentialHeight_IsbL-0600_LatLon0.15_PT162H.grib2 2026-04-11 16:53 679K
20260411T12Z_MSC_GDPS_GeopotentialHeight_IsbL-0650_LatLon0.15_PT162H.grib2 2026-04-11 16:53 678K
20260411T12Z_MSC_GDPS_GeopotentialHeight_IsbL-0700_LatLon0.15_PT162H.grib2 2026-04-11 16:53 675K
20260411T12Z_MSC_GDPS_GeopotentialHeight_IsbL-0750_LatLon0.15_PT162H.grib2 2026-04-11 16:53 681K
20260411T12Z_MSC_GDPS_GeopotentialHeight_IsbL-0800_LatLon0.15_PT162H.grib2 2026-04-11 16:53 697K
20260411T12Z_MSC_GDPS_GeopotentialHeight_IsbL-0850_LatLon0.15_PT162H.grib2 2026-04-11 16:53 704K
20260411T12Z_MSC_GDPS_GeopotentialHeight_IsbL-0875_LatLon0.15_PT162H.grib2 2026-04-11 16:53 710K
20260411T12Z_MSC_GDPS_GeopotentialHeight_IsbL-0900_LatLon0.15_PT162H.grib2 2026-04-11 16:53 718K
20260411T12Z_MSC_GDPS_GeopotentialHeight_IsbL-0925_LatLon0.15_PT162H.grib2 2026-04-11 16:53 725K
20260411T12Z_MSC_GDPS_GeopotentialHeight_IsbL-0950_LatLon0.15_PT162H.grib2 2026-04-11 16:53 733K
20260411T12Z_MSC_GDPS_GeopotentialHeight_IsbL-0970_LatLon0.15_PT162H.grib2 2026-04-11 16:53 747K
20260411T12Z_MSC_GDPS_GeopotentialHeight_IsbL-0985_LatLon0.15_PT162H.grib2 2026-04-11 16:53 763K
20260411T12Z_MSC_GDPS_GeopotentialHeight_IsbL-1000_LatLon0.15_PT162H.grib2 2026-04-11 16:53 784K
20260411T12Z_MSC_GDPS_GeopotentialHeight_IsbL-1015_LatLon0.15_PT162H.grib2 2026-04-11 16:53 807K
20260411T12Z_MSC_GDPS_Humidex_Sfc_LatLon0.15_PT162H.grib2 2026-04-11 16:53 5.3M
20260411T12Z_MSC_GDPS_IcePellets-Accum12h_Sfc_LatLon0.15_PT162H.grib2 2026-04-11 16:53 33K
20260411T12Z_MSC_GDPS_IcePellets-Accum24h_Sfc_LatLon0.15_PT162H.grib2 2026-04-11 16:53 45K
20260411T12Z_MSC_GDPS_IcePellets-Accum3h_Sfc_LatLon0.15_PT162H.grib2 2026-04-11 16:53 20K
20260411T12Z_MSC_GDPS_IcePellets-Accum6h_Sfc_LatLon0.15_PT162H.grib2 2026-04-11 16:53 26K
20260411T12Z_MSC_GDPS_IcePellets-Accum_Sfc_LatLon0.15_PT162H.grib2 2026-04-11 16:53 162K
20260411T12Z_MSC_GDPS_KIndex_Sfc_LatLon0.15_PT162H.grib2 2026-04-11 16:53 6.5M
20260411T12Z_MSC_GDPS_LatentHeatNetFlux_Sfc_LatLon0.15_PT162H.grib2 2026-04-11 16:53 523K
20260411T12Z_MSC_GDPS_LiftedIndex-MU-VT_IsbL-0500_LatLon0.15_PT162H.grib2 2026-04-11 16:53 5.4M
20260411T12Z_MSC_GDPS_NetLongwaveRadiationFlux-Accum_Sfc_LatLon0.15_PT162H.grib2 2026-04-11 16:53 1.1M
20260411T12Z_MSC_GDPS_NetShortwaveRadiationFlux-Accum_Sfc_LatLon0.15_PT162H.grib2 2026-04-11 16:53 1.1M
20260411T12Z_MSC_GDPS_O3MixingRatio_LatLon0.15_PT162H.grib2 2026-04-11 17:06 2.3M
20260411T12Z_MSC_GDPS_O3_EAtm_LatLon0.15_PT162H.grib2 2026-04-11 17:06 2.1M
20260411T12Z_MSC_GDPS_PlanetaryBoundaryLayerHeight_Sfc_LatLon0.15_PT162H.grib2 2026-04-11 16:53 2.4M
20260411T12Z_MSC_GDPS_Precip-Accum12h_Sfc_LatLon0.15_PT162H.grib2 2026-04-11 16:53 4.2M
20260411T12Z_MSC_GDPS_Precip-Accum24h_Sfc_LatLon0.15_PT162H.grib2 2026-04-11 16:53 4.5M
20260411T12Z_MSC_GDPS_Precip-Accum3h_Sfc_LatLon0.15_PT162H.grib2 2026-04-11 16:53 3.4M
20260411T12Z_MSC_GDPS_Precip-Accum6h_Sfc_LatLon0.15_PT162H.grib2 2026-04-11 16:53 3.8M
20260411T12Z_MSC_GDPS_Precip-Accum_Sfc_LatLon0.15_PT162H.grib2 2026-04-11 16:53 4.9M
20260411T12Z_MSC_GDPS_PrecipRate_Sfc_LatLon0.15_PT162H.grib2 2026-04-11 16:53 3.1M
20260411T12Z_MSC_GDPS_PrecipType-Instant_Sfc_LatLon0.15_PT162H.grib2 2026-04-11 16:53 1.5M
20260411T12Z_MSC_GDPS_Pressure_MSL_LatLon0.15_PT162H.grib2 2026-04-11 16:53 716K
20260411T12Z_MSC_GDPS_Pressure_PVU-1.5_LatLon0.15_PT162H.grib2 2026-04-11 16:53 5.8M
20260411T12Z_MSC_GDPS_Pressure_PVU-1_LatLon0.15_PT162H.grib2 2026-04-11 16:53 6.0M
20260411T12Z_MSC_GDPS_Pressure_PVU-2_LatLon0.15_PT162H.grib2 2026-04-11 16:53 5.6M
20260411T12Z_MSC_GDPS_Pressure_Sfc_LatLon0.15_PT162H.grib2 2026-04-11 16:53 1.1M
20260411T12Z_MSC_GDPS_RadiativeTemp_Sfc_LatLon0.15_PT162H.grib2 2026-04-11 16:53 674K
20260411T12Z_MSC_GDPS_Rain-Accum12h_Sfc_LatLon0.15_PT162H.grib2 2026-04-11 16:53 2.8M
20260411T12Z_MSC_GDPS_Rain-Accum24h_Sfc_LatLon0.15_PT162H.grib2 2026-04-11 16:53 3.1M
20260411T12Z_MSC_GDPS_Rain-Accum3h_Sfc_LatLon0.15_PT162H.grib2 2026-04-11 16:53 1.7M
20260411T12Z_MSC_GDPS_Rain-Accum6h_Sfc_LatLon0.15_PT162H.grib2 2026-04-11 16:53 2.3M
20260411T12Z_MSC_GDPS_Rain-Accum_Sfc_LatLon0.15_PT162H.grib2 2026-04-11 16:53 4.0M
20260411T12Z_MSC_GDPS_RelativeHumidity_AGL-2m_LatLon0.15_PT162H.grib2 2026-04-11 16:53 1.0M
20260411T12Z_MSC_GDPS_RelativeHumidity_IsbL-0010_LatLon0.15_PT162H.grib2 2026-04-11 16:53 221K
20260411T12Z_MSC_GDPS_RelativeHumidity_IsbL-0020_LatLon0.15_PT162H.grib2 2026-04-11 16:53 357K
20260411T12Z_MSC_GDPS_RelativeHumidity_IsbL-0030_LatLon0.15_PT162H.grib2 2026-04-11 16:53 376K
20260411T12Z_MSC_GDPS_RelativeHumidity_IsbL-0050_LatLon0.15_PT162H.grib2 2026-04-11 16:53 316K
20260411T12Z_MSC_GDPS_RelativeHumidity_IsbL-0100_LatLon0.15_PT162H.grib2 2026-04-11 16:53 475K
20260411T12Z_MSC_GDPS_RelativeHumidity_IsbL-0150_LatLon0.15_PT162H.grib2 2026-04-11 16:53 645K
20260411T12Z_MSC_GDPS_RelativeHumidity_IsbL-0175_LatLon0.15_PT162H.grib2 2026-04-11 16:53 778K
20260411T12Z_MSC_GDPS_RelativeHumidity_IsbL-0200_LatLon0.15_PT162H.grib2 2026-04-11 16:53 681K
20260411T12Z_MSC_GDPS_RelativeHumidity_IsbL-0225_LatLon0.15_PT162H.grib2 2026-04-11 16:53 777K
20260411T12Z_MSC_GDPS_RelativeHumidity_IsbL-0250_LatLon0.15_PT162H.grib2 2026-04-11 16:53 866K
20260411T12Z_MSC_GDPS_RelativeHumidity_IsbL-0275_LatLon0.15_PT162H.grib2 2026-04-11 16:53 889K
20260411T12Z_MSC_GDPS_RelativeHumidity_IsbL-0300_LatLon0.15_PT162H.grib2 2026-04-11 16:53 934K
20260411T12Z_MSC_GDPS_RelativeHumidity_IsbL-0350_LatLon0.15_PT162H.grib2 2026-04-11 16:53 950K
20260411T12Z_MSC_GDPS_RelativeHumidity_IsbL-0400_LatLon0.15_PT162H.grib2 2026-04-11 16:53 1.0M
20260411T12Z_MSC_GDPS_RelativeHumidity_IsbL-0450_LatLon0.15_PT162H.grib2 2026-04-11 16:53 1.0M
20260411T12Z_MSC_GDPS_RelativeHumidity_IsbL-0500_LatLon0.15_PT162H.grib2 2026-04-11 16:53 1.0M
20260411T12Z_MSC_GDPS_RelativeHumidity_IsbL-0550_LatLon0.15_PT162H.grib2 2026-04-11 16:53 1.1M
20260411T12Z_MSC_GDPS_RelativeHumidity_IsbL-0600_LatLon0.15_PT162H.grib2 2026-04-11 16:53 1.0M
20260411T12Z_MSC_GDPS_RelativeHumidity_IsbL-0650_LatLon0.15_PT162H.grib2 2026-04-11 16:53 1.1M
20260411T12Z_MSC_GDPS_RelativeHumidity_IsbL-0700_LatLon0.15_PT162H.grib2 2026-04-11 16:53 1.1M
20260411T12Z_MSC_GDPS_RelativeHumidity_IsbL-0750_LatLon0.15_PT162H.grib2 2026-04-11 16:53 1.1M
20260411T12Z_MSC_GDPS_RelativeHumidity_IsbL-0800_LatLon0.15_PT162H.grib2 2026-04-11 16:53 1.2M
20260411T12Z_MSC_GDPS_RelativeHumidity_IsbL-0850_LatLon0.15_PT162H.grib2 2026-04-11 16:53 1.3M
20260411T12Z_MSC_GDPS_RelativeHumidity_IsbL-0875_LatLon0.15_PT162H.grib2 2026-04-11 16:53 1.3M
20260411T12Z_MSC_GDPS_RelativeHumidity_IsbL-0900_LatLon0.15_PT162H.grib2 2026-04-11 16:53 1.2M
20260411T12Z_MSC_GDPS_RelativeHumidity_IsbL-0925_LatLon0.15_PT162H.grib2 2026-04-11 16:53 1.2M
20260411T12Z_MSC_GDPS_RelativeHumidity_IsbL-0950_LatLon0.15_PT162H.grib2 2026-04-11 16:53 1.2M
20260411T12Z_MSC_GDPS_RelativeHumidity_IsbL-0970_LatLon0.15_PT162H.grib2 2026-04-11 16:53 1.2M
20260411T12Z_MSC_GDPS_RelativeHumidity_IsbL-0985_LatLon0.15_PT162H.grib2 2026-04-11 16:53 1.1M
20260411T12Z_MSC_GDPS_RelativeHumidity_IsbL-1000_LatLon0.15_PT162H.grib2 2026-04-11 16:53 1.1M
20260411T12Z_MSC_GDPS_RelativeHumidity_IsbL-1015_LatLon0.15_PT162H.grib2 2026-04-11 16:53 1.0M
20260411T12Z_MSC_GDPS_RelativeVorticity_IsbL-0200_LatLon0.15_PT162H.grib2 2026-04-11 16:53 1.5M
20260411T12Z_MSC_GDPS_RelativeVorticity_IsbL-0250_LatLon0.15_PT162H.grib2 2026-04-11 16:53 1.6M
20260411T12Z_MSC_GDPS_RelativeVorticity_IsbL-0500_LatLon0.15_PT162H.grib2 2026-04-11 16:53 1.5M
20260411T12Z_MSC_GDPS_RelativeVorticity_IsbL-0700_LatLon0.15_PT162H.grib2 2026-04-11 16:53 1.6M
20260411T12Z_MSC_GDPS_RelativeVorticity_IsbL-0850_LatLon0.15_PT162H.grib2 2026-04-11 16:53 1.6M
20260411T12Z_MSC_GDPS_Runoff-Accum_Sfc_LatLon0.15_PT162H.grib2 2026-04-11 16:53 131K
20260411T12Z_MSC_GDPS_SensibleHeatNetFlux_Sfc_LatLon0.15_PT162H.grib2 2026-04-11 16:53 638K
20260411T12Z_MSC_GDPS_ShowalterIndex_IsbL-0500_LatLon0.15_PT162H.grib2 2026-04-11 16:53 6.2M
20260411T12Z_MSC_GDPS_Snow-Accum12h_Sfc_LatLon0.15_PT162H.grib2 2026-04-11 16:53 1.5M
20260411T12Z_MSC_GDPS_Snow-Accum24h_Sfc_LatLon0.15_PT162H.grib2 2026-04-11 16:53 1.6M
20260411T12Z_MSC_GDPS_Snow-Accum3h_Sfc_LatLon0.15_PT162H.grib2 2026-04-11 16:53 1.1M
20260411T12Z_MSC_GDPS_Snow-Accum6h_Sfc_LatLon0.15_PT162H.grib2 2026-04-11 16:53 1.5M
20260411T12Z_MSC_GDPS_Snow-Accum_Sfc_LatLon0.15_PT162H.grib2 2026-04-11 16:53 1.9M
20260411T12Z_MSC_GDPS_SnowDensity_Sfc_LatLon0.15_PT162H.grib2 2026-04-11 16:53 270K
20260411T12Z_MSC_GDPS_SnowDepth_Sfc_LatLon0.15_PT162H.grib2 2026-04-11 16:53 1.8M
20260411T12Z_MSC_GDPS_SoilTemp_DBS-0to10cm_LatLon0.15_PT162H.grib2 2026-04-11 16:53 509K
20260411T12Z_MSC_GDPS_SoilTemp_Sfc_LatLon0.15_PT162H.grib2 2026-04-11 16:53 578K
20260411T12Z_MSC_GDPS_SoilVolumetricIceContent_Sfc_LatLon0.15_PT162H.grib2 2026-04-11 16:53 224K
20260411T12Z_MSC_GDPS_SoilVolumetricWaterContent_DBS-0to10cm_LatLon0.15_PT162H.grib2 2026-04-11 16:53 552K
20260411T12Z_MSC_GDPS_SoilVolumetricWaterContent_DBS-0to1cm_LatLon0.15_PT162H.grib2 2026-04-11 16:53 652K
20260411T12Z_MSC_GDPS_SpecificHumidity_AGL-120m_LatLon0.15_PT162H.grib2 2026-04-11 16:53 1.1M
20260411T12Z_MSC_GDPS_SpecificHumidity_AGL-2m_LatLon0.15_PT162H.grib2 2026-04-11 16:53 1.2M
20260411T12Z_MSC_GDPS_SpecificHumidity_AGL-40m_LatLon0.15_PT162H.grib2 2026-04-11 16:53 1.1M
20260411T12Z_MSC_GDPS_SpecificHumidity_AGL-80m_LatLon0.15_PT162H.grib2 2026-04-11 16:53 1.1M
20260411T12Z_MSC_GDPS_SpecificHumidity_IsbL-0001_LatLon0.15_PT162H.grib2 2026-04-11 16:53 1.1M
20260411T12Z_MSC_GDPS_SpecificHumidity_IsbL-0005_LatLon0.15_PT162H.grib2 2026-04-11 16:53 1.0M
20260411T12Z_MSC_GDPS_SpecificHumidity_IsbL-0010_LatLon0.15_PT162H.grib2 2026-04-11 16:53 1.2M
20260411T12Z_MSC_GDPS_SpecificHumidity_IsbL-0020_LatLon0.15_PT162H.grib2 2026-04-11 16:53 1.2M
20260411T12Z_MSC_GDPS_SpecificHumidity_IsbL-0030_LatLon0.15_PT162H.grib2 2026-04-11 16:53 1.5M
20260411T12Z_MSC_GDPS_SpecificHumidity_IsbL-0050_LatLon0.15_PT162H.grib2 2026-04-11 16:53 1.2M
20260411T12Z_MSC_GDPS_SpecificHumidity_IsbL-0100_LatLon0.15_PT162H.grib2 2026-04-11 16:53 1.2M
20260411T12Z_MSC_GDPS_SpecificHumidity_IsbL-0150_LatLon0.15_PT162H.grib2 2026-04-11 16:53 1.0M
20260411T12Z_MSC_GDPS_SpecificHumidity_IsbL-0175_LatLon0.15_PT162H.grib2 2026-04-11 16:53 1.3M
20260411T12Z_MSC_GDPS_SpecificHumidity_IsbL-0200_LatLon0.15_PT162H.grib2 2026-04-11 16:53 1.3M
20260411T12Z_MSC_GDPS_SpecificHumidity_IsbL-0225_LatLon0.15_PT162H.grib2 2026-04-11 16:53 1.3M
20260411T12Z_MSC_GDPS_SpecificHumidity_IsbL-0250_LatLon0.15_PT162H.grib2 2026-04-11 16:53 1.2M
20260411T12Z_MSC_GDPS_SpecificHumidity_IsbL-0275_LatLon0.15_PT162H.grib2 2026-04-11 16:53 1.3M
20260411T12Z_MSC_GDPS_SpecificHumidity_IsbL-0300_LatLon0.15_PT162H.grib2 2026-04-11 16:53 1.2M
20260411T12Z_MSC_GDPS_SpecificHumidity_IsbL-0350_LatLon0.15_PT162H.grib2 2026-04-11 16:53 1.2M
20260411T12Z_MSC_GDPS_SpecificHumidity_IsbL-0400_LatLon0.15_PT162H.grib2 2026-04-11 16:53 1.5M
20260411T12Z_MSC_GDPS_SpecificHumidity_IsbL-0450_LatLon0.15_PT162H.grib2 2026-04-11 16:53 1.3M
20260411T12Z_MSC_GDPS_SpecificHumidity_IsbL-0500_LatLon0.15_PT162H.grib2 2026-04-11 16:53 1.4M
20260411T12Z_MSC_GDPS_SpecificHumidity_IsbL-0550_LatLon0.15_PT162H.grib2 2026-04-11 16:53 1.6M
20260411T12Z_MSC_GDPS_SpecificHumidity_IsbL-0600_LatLon0.15_PT162H.grib2 2026-04-11 16:53 1.4M
20260411T12Z_MSC_GDPS_SpecificHumidity_IsbL-0650_LatLon0.15_PT162H.grib2 2026-04-11 16:53 1.5M
20260411T12Z_MSC_GDPS_SpecificHumidity_IsbL-0700_LatLon0.15_PT162H.grib2 2026-04-11 16:53 1.6M
20260411T12Z_MSC_GDPS_SpecificHumidity_IsbL-0750_LatLon0.15_PT162H.grib2 2026-04-11 16:53 1.7M
20260411T12Z_MSC_GDPS_SpecificHumidity_IsbL-0800_LatLon0.15_PT162H.grib2 2026-04-11 16:53 1.8M
20260411T12Z_MSC_GDPS_SpecificHumidity_IsbL-0850_LatLon0.15_PT162H.grib2 2026-04-11 16:53 1.9M
20260411T12Z_MSC_GDPS_SpecificHumidity_IsbL-0875_LatLon0.15_PT162H.grib2 2026-04-11 16:53 1.9M
20260411T12Z_MSC_GDPS_SpecificHumidity_IsbL-0900_LatLon0.15_PT162H.grib2 2026-04-11 16:53 1.9M
20260411T12Z_MSC_GDPS_SpecificHumidity_IsbL-0925_LatLon0.15_PT162H.grib2 2026-04-11 16:53 1.6M
20260411T12Z_MSC_GDPS_SpecificHumidity_IsbL-0950_LatLon0.15_PT162H.grib2 2026-04-11 16:53 1.5M
20260411T12Z_MSC_GDPS_SpecificHumidity_IsbL-0970_LatLon0.15_PT162H.grib2 2026-04-11 16:53 1.5M
20260411T12Z_MSC_GDPS_SpecificHumidity_IsbL-0985_LatLon0.15_PT162H.grib2 2026-04-11 16:53 1.5M
20260411T12Z_MSC_GDPS_SpecificHumidity_IsbL-1000_LatLon0.15_PT162H.grib2 2026-04-11 16:53 1.5M
20260411T12Z_MSC_GDPS_SpecificHumidity_IsbL-1015_LatLon0.15_PT162H.grib2 2026-04-11 16:53 1.4M
20260411T12Z_MSC_GDPS_SpecificHumidity_Sfc_LatLon0.15_PT162H.grib2 2026-04-11 16:53 662K
20260411T12Z_MSC_GDPS_Thickness_IsbL-0850to0700_LatLon0.15_PT162H.grib2 2026-04-11 16:53 466K
20260411T12Z_MSC_GDPS_Thickness_IsbL-1000to0500_LatLon0.15_PT162H.grib2 2026-04-11 16:53 374K
20260411T12Z_MSC_GDPS_Thickness_IsbL-1000to0850_LatLon0.15_PT162H.grib2 2026-04-11 16:53 489K
20260411T12Z_MSC_GDPS_TotalCloudCover_Sfc_LatLon0.15_PT162H.grib2 2026-04-11 16:53 814K
20260411T12Z_MSC_GDPS_TotalTotalsIndex_Sfc_LatLon0.15_PT162H.grib2 2026-04-11 16:53 6.2M
20260411T12Z_MSC_GDPS_UVIndex-ClearSky_Sfc_LatLon0.15_PT162H.grib2 2026-04-11 17:06 1.0M
20260411T12Z_MSC_GDPS_UVIndex_Sfc_LatLon0.15_PT162H.grib2 2026-04-11 17:06 1.4M
20260411T12Z_MSC_GDPS_UpwardLongwaveRadiationFlux_NTAtm_LatLon0.15_PT162H.grib2 2026-04-11 16:53 822K
20260411T12Z_MSC_GDPS_VerticalVelocity_IsbL-0200_LatLon0.15_PT162H.grib2 2026-04-11 16:53 1.2M
20260411T12Z_MSC_GDPS_VerticalVelocity_IsbL-0250_LatLon0.15_PT162H.grib2 2026-04-11 16:53 1.0M
20260411T12Z_MSC_GDPS_VerticalVelocity_IsbL-0500_LatLon0.15_PT162H.grib2 2026-04-11 16:53 1.2M
20260411T12Z_MSC_GDPS_VerticalVelocity_IsbL-0600_LatLon0.15_PT162H.grib2 2026-04-11 16:53 1.0M
20260411T12Z_MSC_GDPS_VerticalVelocity_IsbL-0700_LatLon0.15_PT162H.grib2 2026-04-11 16:53 1.4M
20260411T12Z_MSC_GDPS_VerticalVelocity_IsbL-0850_LatLon0.15_PT162H.grib2 2026-04-11 16:53 1.3M
20260411T12Z_MSC_GDPS_WindChill_Sfc_LatLon0.15_PT162H.grib2 2026-04-11 16:53 5.3M
20260411T12Z_MSC_GDPS_WindDir_AGL-10m_LatLon0.15_PT162H.grib2 2026-04-11 16:53 1.3M
20260411T12Z_MSC_GDPS_WindDir_AGL-120m_LatLon0.15_PT162H.grib2 2026-04-11 16:53 1.4M
20260411T12Z_MSC_GDPS_WindDir_AGL-40m_LatLon0.15_PT162H.grib2 2026-04-11 16:53 1.4M
20260411T12Z_MSC_GDPS_WindDir_AGL-80m_LatLon0.15_PT162H.grib2 2026-04-11 16:53 1.4M
20260411T12Z_MSC_GDPS_WindDir_IsbL-0001_LatLon0.15_PT162H.grib2 2026-04-11 16:53 636K
20260411T12Z_MSC_GDPS_WindDir_IsbL-0005_LatLon0.15_PT162H.grib2 2026-04-11 16:53 788K
20260411T12Z_MSC_GDPS_WindDir_IsbL-0010_LatLon0.15_PT162H.grib2 2026-04-11 16:53 831K
20260411T12Z_MSC_GDPS_WindDir_IsbL-0020_LatLon0.15_PT162H.grib2 2026-04-11 16:53 904K
20260411T12Z_MSC_GDPS_WindDir_IsbL-0030_LatLon0.15_PT162H.grib2 2026-04-11 16:53 871K
20260411T12Z_MSC_GDPS_WindDir_IsbL-0050_LatLon0.15_PT162H.grib2 2026-04-11 16:53 925K
20260411T12Z_MSC_GDPS_WindDir_IsbL-0100_LatLon0.15_PT162H.grib2 2026-04-11 16:53 1.0M
20260411T12Z_MSC_GDPS_WindDir_IsbL-0150_LatLon0.15_PT162H.grib2 2026-04-11 16:53 1.0M
20260411T12Z_MSC_GDPS_WindDir_IsbL-0175_LatLon0.15_PT162H.grib2 2026-04-11 16:53 1.0M
20260411T12Z_MSC_GDPS_WindDir_IsbL-0200_LatLon0.15_PT162H.grib2 2026-04-11 16:53 1.1M
20260411T12Z_MSC_GDPS_WindDir_IsbL-0225_LatLon0.15_PT162H.grib2 2026-04-11 16:53 1.1M
20260411T12Z_MSC_GDPS_WindDir_IsbL-0250_LatLon0.15_PT162H.grib2 2026-04-11 16:53 1.1M
20260411T12Z_MSC_GDPS_WindDir_IsbL-0275_LatLon0.15_PT162H.grib2 2026-04-11 16:53 1.2M
20260411T12Z_MSC_GDPS_WindDir_IsbL-0300_LatLon0.15_PT162H.grib2 2026-04-11 16:53 1.2M
20260411T12Z_MSC_GDPS_WindDir_IsbL-0350_LatLon0.15_PT162H.grib2 2026-04-11 16:53 1.2M
20260411T12Z_MSC_GDPS_WindDir_IsbL-0400_LatLon0.15_PT162H.grib2 2026-04-11 16:53 1.3M
20260411T12Z_MSC_GDPS_WindDir_IsbL-0450_LatLon0.15_PT162H.grib2 2026-04-11 16:53 1.3M
20260411T12Z_MSC_GDPS_WindDir_IsbL-0500_LatLon0.15_PT162H.grib2 2026-04-11 16:53 1.4M
20260411T12Z_MSC_GDPS_WindDir_IsbL-0550_LatLon0.15_PT162H.grib2 2026-04-11 16:53 1.4M
20260411T12Z_MSC_GDPS_WindDir_IsbL-0600_LatLon0.15_PT162H.grib2 2026-04-11 16:53 1.5M
20260411T12Z_MSC_GDPS_WindDir_IsbL-0650_LatLon0.15_PT162H.grib2 2026-04-11 16:53 1.5M
20260411T12Z_MSC_GDPS_WindDir_IsbL-0700_LatLon0.15_PT162H.grib2 2026-04-11 16:53 1.6M
20260411T12Z_MSC_GDPS_WindDir_IsbL-0750_LatLon0.15_PT162H.grib2 2026-04-11 16:53 1.7M
20260411T12Z_MSC_GDPS_WindDir_IsbL-0800_LatLon0.15_PT162H.grib2 2026-04-11 16:53 1.8M
20260411T12Z_MSC_GDPS_WindDir_IsbL-0850_LatLon0.15_PT162H.grib2 2026-04-11 16:53 2.0M
20260411T12Z_MSC_GDPS_WindDir_IsbL-0875_LatLon0.15_PT162H.grib2 2026-04-11 16:53 2.0M
20260411T12Z_MSC_GDPS_WindDir_IsbL-0900_LatLon0.15_PT162H.grib2 2026-04-11 16:53 2.0M
20260411T12Z_MSC_GDPS_WindDir_IsbL-0925_LatLon0.15_PT162H.grib2 2026-04-11 16:53 2.0M
20260411T12Z_MSC_GDPS_WindDir_IsbL-0950_LatLon0.15_PT162H.grib2 2026-04-11 16:53 2.0M
20260411T12Z_MSC_GDPS_WindDir_IsbL-0970_LatLon0.15_PT162H.grib2 2026-04-11 16:53 2.0M
20260411T12Z_MSC_GDPS_WindDir_IsbL-0985_LatLon0.15_PT162H.grib2 2026-04-11 16:53 2.1M
20260411T12Z_MSC_GDPS_WindDir_IsbL-1000_LatLon0.15_PT162H.grib2 2026-04-11 16:53 2.1M
20260411T12Z_MSC_GDPS_WindDir_IsbL-1015_LatLon0.15_PT162H.grib2 2026-04-11 16:53 2.1M
20260411T12Z_MSC_GDPS_WindGust-Max_AGL-10m_LatLon0.15_PT162H.grib2 2026-04-11 16:53 2.2M
20260411T12Z_MSC_GDPS_WindGust-Min_AGL-10m_LatLon0.15_PT162H.grib2 2026-04-11 16:53 2.1M
20260411T12Z_MSC_GDPS_WindGust_AGL-10m_LatLon0.15_PT162H.grib2 2026-04-11 16:53 2.1M
20260411T12Z_MSC_GDPS_WindSpeed_AGL-10m_LatLon0.15_PT162H.grib2 2026-04-11 16:53 1.1M
20260411T12Z_MSC_GDPS_WindSpeed_AGL-120m_LatLon0.15_PT162H.grib2 2026-04-11 16:53 1.2M
20260411T12Z_MSC_GDPS_WindSpeed_AGL-40m_LatLon0.15_PT162H.grib2 2026-04-11 16:53 1.2M
20260411T12Z_MSC_GDPS_WindSpeed_AGL-80m_LatLon0.15_PT162H.grib2 2026-04-11 16:53 1.2M
20260411T12Z_MSC_GDPS_WindSpeed_IsbL-0001_LatLon0.15_PT162H.grib2 2026-04-11 16:53 629K
20260411T12Z_MSC_GDPS_WindSpeed_IsbL-0005_LatLon0.15_PT162H.grib2 2026-04-11 16:53 680K
20260411T12Z_MSC_GDPS_WindSpeed_IsbL-0010_LatLon0.15_PT162H.grib2 2026-04-11 16:53 698K
20260411T12Z_MSC_GDPS_WindSpeed_IsbL-0020_LatLon0.15_PT162H.grib2 2026-04-11 16:53 854K
20260411T12Z_MSC_GDPS_WindSpeed_IsbL-0030_LatLon0.15_PT162H.grib2 2026-04-11 16:53 849K
20260411T12Z_MSC_GDPS_WindSpeed_IsbL-0050_LatLon0.15_PT162H.grib2 2026-04-11 16:53 1.0M
20260411T12Z_MSC_GDPS_WindSpeed_IsbL-0100_LatLon0.15_PT162H.grib2 2026-04-11 16:53 1.1M
20260411T12Z_MSC_GDPS_WindSpeed_IsbL-0150_LatLon0.15_PT162H.grib2 2026-04-11 16:53 1.0M
20260411T12Z_MSC_GDPS_WindSpeed_IsbL-0175_LatLon0.15_PT162H.grib2 2026-04-11 16:53 1.0M
20260411T12Z_MSC_GDPS_WindSpeed_IsbL-0200_LatLon0.15_PT162H.grib2 2026-04-11 16:53 1.0M
20260411T12Z_MSC_GDPS_WindSpeed_IsbL-0225_LatLon0.15_PT162H.grib2 2026-04-11 16:53 1.1M
20260411T12Z_MSC_GDPS_WindSpeed_IsbL-0250_LatLon0.15_PT162H.grib2 2026-04-11 16:53 1.1M
20260411T12Z_MSC_GDPS_WindSpeed_IsbL-0275_LatLon0.15_PT162H.grib2 2026-04-11 16:53 1.1M
20260411T12Z_MSC_GDPS_WindSpeed_IsbL-0300_LatLon0.15_PT162H.grib2 2026-04-11 16:53 1.1M
20260411T12Z_MSC_GDPS_WindSpeed_IsbL-0350_LatLon0.15_PT162H.grib2 2026-04-11 16:53 1.1M
20260411T12Z_MSC_GDPS_WindSpeed_IsbL-0400_LatLon0.15_PT162H.grib2 2026-04-11 16:53 1.1M
20260411T12Z_MSC_GDPS_WindSpeed_IsbL-0450_LatLon0.15_PT162H.grib2 2026-04-11 16:53 1.1M
20260411T12Z_MSC_GDPS_WindSpeed_IsbL-0500_LatLon0.15_PT162H.grib2 2026-04-11 16:53 1.1M
20260411T12Z_MSC_GDPS_WindSpeed_IsbL-0550_LatLon0.15_PT162H.grib2 2026-04-11 16:53 1.4M
20260411T12Z_MSC_GDPS_WindSpeed_IsbL-0600_LatLon0.15_PT162H.grib2 2026-04-11 16:53 1.4M
20260411T12Z_MSC_GDPS_WindSpeed_IsbL-0650_LatLon0.15_PT162H.grib2 2026-04-11 16:53 1.4M
20260411T12Z_MSC_GDPS_WindSpeed_IsbL-0700_LatLon0.15_PT162H.grib2 2026-04-11 16:53 1.5M
20260411T12Z_MSC_GDPS_WindSpeed_IsbL-0750_LatLon0.15_PT162H.grib2 2026-04-11 16:53 1.5M
20260411T12Z_MSC_GDPS_WindSpeed_IsbL-0800_LatLon0.15_PT162H.grib2 2026-04-11 16:53 1.6M
20260411T12Z_MSC_GDPS_WindSpeed_IsbL-0850_LatLon0.15_PT162H.grib2 2026-04-11 16:53 1.7M
20260411T12Z_MSC_GDPS_WindSpeed_IsbL-0875_LatLon0.15_PT162H.grib2 2026-04-11 16:53 1.8M
20260411T12Z_MSC_GDPS_WindSpeed_IsbL-0900_LatLon0.15_PT162H.grib2 2026-04-11 16:53 1.8M
20260411T12Z_MSC_GDPS_WindSpeed_IsbL-0925_LatLon0.15_PT162H.grib2 2026-04-11 16:53 1.8M
20260411T12Z_MSC_GDPS_WindSpeed_IsbL-0950_LatLon0.15_PT162H.grib2 2026-04-11 16:53 1.8M
20260411T12Z_MSC_GDPS_WindSpeed_IsbL-0970_LatLon0.15_PT162H.grib2 2026-04-11 16:53 1.9M
20260411T12Z_MSC_GDPS_WindSpeed_IsbL-0985_LatLon0.15_PT162H.grib2 2026-04-11 16:53 1.9M
20260411T12Z_MSC_GDPS_WindSpeed_IsbL-1000_LatLon0.15_PT162H.grib2 2026-04-11 16:53 1.9M
20260411T12Z_MSC_GDPS_WindSpeed_IsbL-1015_LatLon0.15_PT162H.grib2 2026-04-11 16:53 1.8M
20260411T12Z_MSC_GDPS_WindU_AGL-10m_LatLon0.15_PT162H.grib2 2026-04-11 16:53 1.3M
20260411T12Z_MSC_GDPS_WindU_AGL-120m_LatLon0.15_PT162H.grib2 2026-04-11 16:53 1.0M
20260411T12Z_MSC_GDPS_WindU_AGL-40m_LatLon0.15_PT162H.grib2 2026-04-11 16:53 1.0M
20260411T12Z_MSC_GDPS_WindU_AGL-80m_LatLon0.15_PT162H.grib2 2026-04-11 16:53 1.0M
20260411T12Z_MSC_GDPS_WindU_IsbL-0001_LatLon0.15_PT162H.grib2 2026-04-11 16:53 494K
20260411T12Z_MSC_GDPS_WindU_IsbL-0005_LatLon0.15_PT162H.grib2 2026-04-11 16:53 681K
20260411T12Z_MSC_GDPS_WindU_IsbL-0010_LatLon0.15_PT162H.grib2 2026-04-11 16:53 694K
20260411T12Z_MSC_GDPS_WindU_IsbL-0020_LatLon0.15_PT162H.grib2 2026-04-11 16:53 732K
20260411T12Z_MSC_GDPS_WindU_IsbL-0030_LatLon0.15_PT162H.grib2 2026-04-11 16:53 730K
20260411T12Z_MSC_GDPS_WindU_IsbL-0050_LatLon0.15_PT162H.grib2 2026-04-11 16:53 697K
20260411T12Z_MSC_GDPS_WindU_IsbL-0100_LatLon0.15_PT162H.grib2 2026-04-11 16:53 919K
20260411T12Z_MSC_GDPS_WindU_IsbL-0150_LatLon0.15_PT162H.grib2 2026-04-11 16:53 1.0M
20260411T12Z_MSC_GDPS_WindU_IsbL-0175_LatLon0.15_PT162H.grib2 2026-04-11 16:53 1.0M
20260411T12Z_MSC_GDPS_WindU_IsbL-0200_LatLon0.15_PT162H.grib2 2026-04-11 16:53 1.0M
20260411T12Z_MSC_GDPS_WindU_IsbL-0225_LatLon0.15_PT162H.grib2 2026-04-11 16:53 1.1M
20260411T12Z_MSC_GDPS_WindU_IsbL-0250_LatLon0.15_PT162H.grib2 2026-04-11 16:53 1.1M
20260411T12Z_MSC_GDPS_WindU_IsbL-0275_LatLon0.15_PT162H.grib2 2026-04-11 16:53 1.1M
20260411T12Z_MSC_GDPS_WindU_IsbL-0300_LatLon0.15_PT162H.grib2 2026-04-11 16:53 1.1M
20260411T12Z_MSC_GDPS_WindU_IsbL-0350_LatLon0.15_PT162H.grib2 2026-04-11 16:53 1.1M
20260411T12Z_MSC_GDPS_WindU_IsbL-0400_LatLon0.15_PT162H.grib2 2026-04-11 16:53 1.1M
20260411T12Z_MSC_GDPS_WindU_IsbL-0450_LatLon0.15_PT162H.grib2 2026-04-11 16:53 1.1M
20260411T12Z_MSC_GDPS_WindU_IsbL-0500_LatLon0.15_PT162H.grib2 2026-04-11 16:53 1.1M
20260411T12Z_MSC_GDPS_WindU_IsbL-0550_LatLon0.15_PT162H.grib2 2026-04-11 16:53 1.1M
20260411T12Z_MSC_GDPS_WindU_IsbL-0600_LatLon0.15_PT162H.grib2 2026-04-11 16:53 1.1M
20260411T12Z_MSC_GDPS_WindU_IsbL-0650_LatLon0.15_PT162H.grib2 2026-04-11 16:53 1.2M
20260411T12Z_MSC_GDPS_WindU_IsbL-0700_LatLon0.15_PT162H.grib2 2026-04-11 16:53 1.2M
20260411T12Z_MSC_GDPS_WindU_IsbL-0750_LatLon0.15_PT162H.grib2 2026-04-11 16:53 1.3M
20260411T12Z_MSC_GDPS_WindU_IsbL-0800_LatLon0.15_PT162H.grib2 2026-04-11 16:53 1.3M
20260411T12Z_MSC_GDPS_WindU_IsbL-0850_LatLon0.15_PT162H.grib2 2026-04-11 16:53 1.4M
20260411T12Z_MSC_GDPS_WindU_IsbL-0875_LatLon0.15_PT162H.grib2 2026-04-11 16:53 1.4M
20260411T12Z_MSC_GDPS_WindU_IsbL-0900_LatLon0.15_PT162H.grib2 2026-04-11 16:53 1.5M
20260411T12Z_MSC_GDPS_WindU_IsbL-0925_LatLon0.15_PT162H.grib2 2026-04-11 16:53 1.5M
20260411T12Z_MSC_GDPS_WindU_IsbL-0950_LatLon0.15_PT162H.grib2 2026-04-11 16:53 1.4M
20260411T12Z_MSC_GDPS_WindU_IsbL-0970_LatLon0.15_PT162H.grib2 2026-04-11 16:53 1.4M
20260411T12Z_MSC_GDPS_WindU_IsbL-0985_LatLon0.15_PT162H.grib2 2026-04-11 16:53 1.4M
20260411T12Z_MSC_GDPS_WindU_IsbL-1000_LatLon0.15_PT162H.grib2 2026-04-11 16:53 1.4M
20260411T12Z_MSC_GDPS_WindU_IsbL-1015_LatLon0.15_PT162H.grib2 2026-04-11 16:53 1.3M
20260411T12Z_MSC_GDPS_WindV_AGL-10m_LatLon0.15_PT162H.grib2 2026-04-11 16:53 1.3M
20260411T12Z_MSC_GDPS_WindV_AGL-120m_LatLon0.15_PT162H.grib2 2026-04-11 16:53 1.0M
20260411T12Z_MSC_GDPS_WindV_AGL-40m_LatLon0.15_PT162H.grib2 2026-04-11 16:53 964K
20260411T12Z_MSC_GDPS_WindV_AGL-80m_LatLon0.15_PT162H.grib2 2026-04-11 16:53 1.0M
20260411T12Z_MSC_GDPS_WindV_IsbL-0001_LatLon0.15_PT162H.grib2 2026-04-11 16:53 688K
20260411T12Z_MSC_GDPS_WindV_IsbL-0005_LatLon0.15_PT162H.grib2 2026-04-11 16:53 765K
20260411T12Z_MSC_GDPS_WindV_IsbL-0010_LatLon0.15_PT162H.grib2 2026-04-11 16:53 796K
20260411T12Z_MSC_GDPS_WindV_IsbL-0020_LatLon0.15_PT162H.grib2 2026-04-11 16:53 849K
20260411T12Z_MSC_GDPS_WindV_IsbL-0030_LatLon0.15_PT162H.grib2 2026-04-11 16:53 845K
20260411T12Z_MSC_GDPS_WindV_IsbL-0050_LatLon0.15_PT162H.grib2 2026-04-11 16:53 697K
20260411T12Z_MSC_GDPS_WindV_IsbL-0100_LatLon0.15_PT162H.grib2 2026-04-11 16:53 847K
20260411T12Z_MSC_GDPS_WindV_IsbL-0150_LatLon0.15_PT162H.grib2 2026-04-11 16:53 1.0M
20260411T12Z_MSC_GDPS_WindV_IsbL-0175_LatLon0.15_PT162H.grib2 2026-04-11 16:53 1.0M
20260411T12Z_MSC_GDPS_WindV_IsbL-0200_LatLon0.15_PT162H.grib2 2026-04-11 16:53 836K
20260411T12Z_MSC_GDPS_WindV_IsbL-0225_LatLon0.15_PT162H.grib2 2026-04-11 16:53 845K
20260411T12Z_MSC_GDPS_WindV_IsbL-0250_LatLon0.15_PT162H.grib2 2026-04-11 16:53 846K
20260411T12Z_MSC_GDPS_WindV_IsbL-0275_LatLon0.15_PT162H.grib2 2026-04-11 16:53 874K
20260411T12Z_MSC_GDPS_WindV_IsbL-0300_LatLon0.15_PT162H.grib2 2026-04-11 16:53 863K
20260411T12Z_MSC_GDPS_WindV_IsbL-0350_LatLon0.15_PT162H.grib2 2026-04-11 16:53 877K
20260411T12Z_MSC_GDPS_WindV_IsbL-0400_LatLon0.15_PT162H.grib2 2026-04-11 16:53 874K
20260411T12Z_MSC_GDPS_WindV_IsbL-0450_LatLon0.15_PT162H.grib2 2026-04-11 16:53 1.1M
20260411T12Z_MSC_GDPS_WindV_IsbL-0500_LatLon0.15_PT162H.grib2 2026-04-11 16:53 1.1M
20260411T12Z_MSC_GDPS_WindV_IsbL-0550_LatLon0.15_PT162H.grib2 2026-04-11 16:53 1.1M
20260411T12Z_MSC_GDPS_WindV_IsbL-0600_LatLon0.15_PT162H.grib2 2026-04-11 16:53 1.1M
20260411T12Z_MSC_GDPS_WindV_IsbL-0650_LatLon0.15_PT162H.grib2 2026-04-11 16:53 1.1M
20260411T12Z_MSC_GDPS_WindV_IsbL-0700_LatLon0.15_PT162H.grib2 2026-04-11 16:53 1.2M
20260411T12Z_MSC_GDPS_WindV_IsbL-0750_LatLon0.15_PT162H.grib2 2026-04-11 16:53 1.2M
20260411T12Z_MSC_GDPS_WindV_IsbL-0800_LatLon0.15_PT162H.grib2 2026-04-11 16:53 1.3M
20260411T12Z_MSC_GDPS_WindV_IsbL-0850_LatLon0.15_PT162H.grib2 2026-04-11 16:53 1.4M
20260411T12Z_MSC_GDPS_WindV_IsbL-0875_LatLon0.15_PT162H.grib2 2026-04-11 16:53 1.4M
20260411T12Z_MSC_GDPS_WindV_IsbL-0900_LatLon0.15_PT162H.grib2 2026-04-11 16:53 1.4M
20260411T12Z_MSC_GDPS_WindV_IsbL-0925_LatLon0.15_PT162H.grib2 2026-04-11 16:53 1.4M
20260411T12Z_MSC_GDPS_WindV_IsbL-0950_LatLon0.15_PT162H.grib2 2026-04-11 16:53 1.4M
20260411T12Z_MSC_GDPS_WindV_IsbL-0970_LatLon0.15_PT162H.grib2 2026-04-11 16:53 1.4M
20260411T12Z_MSC_GDPS_WindV_IsbL-0985_LatLon0.15_PT162H.grib2 2026-04-11 16:53 1.4M
20260411T12Z_MSC_GDPS_WindV_IsbL-1000_LatLon0.15_PT162H.grib2 2026-04-11 16:53 1.4M
20260411T12Z_MSC_GDPS_WindV_IsbL-1015_LatLon0.15_PT162H.grib2 2026-04-11 16:53 1.3M